Find Starlink 4786

NORAD ID: 55393 Int'l Des: 2023-014 Owner: SPXS Country: US Constellation: starlink operational
LEOCIRCULAR

当前视图

正在加载3D地球...

About Starlink 4786

Starlink 4786 (NORAD 55393) is a starlink constellation satellite (v1.5) launched Jan 31, 2023 by SPXS of US. It operates in LEO, CIRCULAR orbit with a mass of 305.00 kg.

即将过境

Passes for default location (London). Set your location on the main map for personalized predictions.

高度历史

Loading altitude history...

两行轨道根数

1 55393U 23014C 26224.87746242 .00000024 00000-0 98221-5 0 9994
2 55393 70.0004 30.5521 0002779 269.5362 90.5479 14.98338849195457
Epoch: Aug 12, 2026 • Age: 15 hours

当前状态

高度 578.6 km
远地点 / 近地点 N/A
速度 7.57 km/s
星下点 40.47°N, 47.75°E
发射日期 Jan 31, 2023
运行时间 3.5 years
类型 internet

技术详情

分类 Payload
质量 305.00 kg
干质量 290.00 kg
总质量 305.00 kg
长度 0.20 m
直径 2.80 m
跨度 9.00 m
形状 Box + pan
制造商 SPXS
平台类型 Starlink
阶段状态 In Orbit
所有者/国家 SPXS/US

Most Searched